| time (UTC) | temp F | wind direction | speed MPH | gust MPH | rain 1hr in | rain 24hr in | rain mn in | humidity % | barometer mb |
| 20260502193051 | 83 | 207 | 4.0 | 14.0 | 0.00 | 0.00 | 0.00 | 33 | 1014.3 |
| 20260502191555 | 84 | 213 | 6.0 | 21.0 | 0.00 | 0.00 | 0.00 | 31 | 1014.3 |
| 20260502190053 | 85 | 49 | 7.0 | 13.0 | 0.00 | 0.00 | 0.00 | 17 | 1014.6 |
| 20260502184549 | 83 | 242 | 3.0 | 8.0 | 0.00 | 0.00 | 0.00 | 30 | 1014.7 |
| 20260502183057 | 82 | 218 | 6.0 | 14.0 | 0.00 | 0.00 | 0.00 | 34 | 1014.7 |
| 20260502181552 | 81 | 224 | 8.0 | 19.0 | 0.00 | 0.00 | 0.00 | 35 | 1015.0 |
| 20260502163111 | 81 | 0 | 1.0 | 6.0 | 0.00 | 0.00 | 0.00 | 35 | 1015.7 |
| 20260502161619 | 79 | 0 | 2.0 | 5.0 | 0.00 | 0.00 | 0.00 | 37 | 1015.6 |
| 20260502151551 | 67 | 0 | 0.0 | 2.0 | 0.00 | 0.00 | 0.00 | 52 | 1015.9 |
| 20260502123113 | 42 | 69 | 0.0 | 3.0 | 0.00 | 0.00 | 0.00 | 85 | 1015.3 |
| 20260502121557 | 42 | 70 | 0.0 | 3.0 | 0.00 | 0.00 | 0.00 | 84 | 1015.4 |
| 20260502120107 | 42 | 0 | 0.0 | 1.0 | 0.00 | 0.00 | 0.00 | 83 | 1015.4 |
| 20260502114551 | 43 | 70 | 2.0 | 4.0 | 0.00 | 0.00 | 0.00 | 84 | 1015.3 |
| 20260502113054 | 42 | 69 | 2.0 | 4.0 | 0.00 | 0.00 | 0.00 | 86 | 1015.3 |
| 20260502111553 | 43 | 0 | 0.0 | 0.0 | 0.00 | 0.00 | 0.00 | 84 | 1015.2 |
| 20260502110054 | 44 | 0 | 0.0 | 0.0 | 0.00 | 0.00 | 0.00 | 85 | 1015.2 |
| 20260502104557 | 44 | 0 | 0.0 | 3.0 | 0.00 | 0.00 | 0.00 | 84 | 1015.0 |
| 20260502103055 | 44 | 0 | 0.0 | 1.0 | 0.00 | 0.00 | 0.00 | 86 | 1014.9 |
| 20260502101550 | 44 | 71 | 1.0 | 2.0 | 0.00 | 0.00 | 0.00 | 84 | 1014.9 |
| 20260502070110 | 47 | 0 | 0.0 | 0.0 | 0.00 | 0.00 | 0.00 | 82 | 1015.9 |
| 20260502064555 | 48 | 0 | 0.0 | 0.0 | 0.00 | 0.00 | 0.00 | 82 | 1015.8 |
| 20260502063057 | 49 | 0 | 0.0 | 2.0 | 0.00 | 0.00 | 0.00 | 81 | 1015.9 |
| 20260502061553 | 49 | 0 | 0.0 | 2.0 | 0.00 | 0.00 | 0.00 | 83 | 1015.8 |
| 20260502060056 | 50 | 0 | 0.0 | 3.0 | 0.00 | 0.00 | 0.00 | 82 | 1015.8 |
| 20260502054556 | 50 | 107 | 2.0 | 3.0 | 0.00 | 0.00 | 0.00 | 80 | 1015.7 |
| 20260502053058 | 51 | 109 | 1.0 | 3.0 | 0.00 | 0.00 | 0.00 | 79 | 1015.8 |
| 20260502051603 | 51 | 0 | 1.0 | 3.0 | 0.00 | 0.00 | 0.00 | 80 | 1015.8 |
| 20260502050059 | 52 | 109 | 0.0 | 1.0 | 0.00 | 0.00 | 0.00 | 79 | 1015.8 |
| 20260502044604 | 53 | 0 | 0.0 | 3.0 | 0.00 | 0.00 | 0.00 | 77 | 1015.8 |
| 20260502043058 | 55 | 0 | 0.0 | 1.0 | 0.00 | 0.00 | 0.00 | 78 | 1015.7 |
| 20260502041554 | 56 | 0 | 0.0 | 1.0 | 0.00 | 0.00 | 0.00 | 77 | 1015.6 |
| 20260502040057 | 57 | 0 | 0.0 | 1.0 | 0.00 | 0.00 | 0.00 | 76 | 1015.5 |
| 20260502034600 | 58 | 0 | 0.0 | 1.0 | 0.00 | 0.00 | 0.00 | 76 | 1015.4 |
| 20260502033057 | 59 | 0 | 0.0 | 5.0 | 0.00 | 0.00 | 0.00 | 76 | 1015.2 |
| 20260502031551 | 60 | 225 | 4.0 | 7.0 | 0.00 | 0.00 | 0.00 | 73 | 1014.9 |
| 20260502030049 | 62 | 229 | 2.0 | 6.0 | 0.00 | 0.00 | 0.00 | 71 | 1014.8 |
| 20260502024551 | 63 | 248 | 2.0 | 8.0 | 0.00 | 0.00 | 0.00 | 69 | 1014.5 |
| 20260502023053 | 65 | 236 | 2.0 | 7.0 | 0.00 | 0.00 | 0.00 | 66 | 1014.2 |
| 20260502021558 | 67 | 249 | 4.0 | 8.0 | 0.00 | 0.00 | 0.00 | 63 | 1014.0 |
| 20260502020050 | 68 | 252 | 3.0 | 11.0 | 0.00 | 0.00 | 0.00 | 61 | 1013.8 |
| 20260502014554 | 70 | 313 | 5.0 | 11.0 | 0.00 | 0.00 | 0.00 | 59 | 1013.7 |
| 20260502013054 | 71 | 257 | 5.0 | 8.0 | 0.00 | 0.00 | 0.00 | 57 | 1013.7 |
| 20260502011557 | 75 | 235 | 3.0 | 10.0 | 0.00 | 0.00 | 0.00 | 54 | 1013.4 |
| 20260502010056 | 79 | 252 | 4.0 | 9.0 | 0.00 | 0.00 | 0.00 | 48 | 1013.4 |
| 20260502004553 | 80 | 230 | 3.0 | 8.0 | 0.00 | 0.00 | 0.00 | 42 | 1013.4 |
| 20260502003101 | 80 | 257 | 4.0 | 12.0 | 0.00 | 0.00 | 0.00 | 42 | 1013.4 |
| 20260502001554 | 80 | 9 | 4.0 | 14.0 | 0.00 | 0.00 | 0.00 | 34 | 1013.4 |
| 20260502000058 | 80 | 346 | 6.0 | 13.0 | 0.00 | 0.00 | 0.00 | 36 | 1013.3 |
| 20260501234600 | 81 | 352 | 6.0 | 13.0 | 0.00 | 0.00 | 0.00 | 34 | 1013.2 |
| 20260501233103 | 82 | 352 | 3.0 | 15.0 | 0.00 | 0.00 | 0.00 | 35 | 1013.2 |
| 20260501231600 | 82 | 230 | 6.0 | 13.0 | 0.00 | 0.00 | 0.00 | 36 | 1013.3 |
| 20260501230107 | 82 | 304 | 7.0 | 14.0 | 0.00 | 0.00 | 0.00 | 34 | 1013.3 |
| 20260501224604 | 83 | 286 | 7.0 | 13.0 | 0.00 | 0.00 | 0.00 | 33 | 1013.4 |
| 20260501223101 | 83 | 352 | 5.0 | 14.0 | 0.00 | 0.00 | 0.00 | 32 | 1013.5 |
| 20260501221556 | 82 | 290 | 5.0 | 16.0 | 0.00 | 0.00 | 0.00 | 33 | 1013.4 |
| 20260501214554 | 83 | 350 | 7.0 | 17.0 | 0.00 | 0.00 | 0.00 | 30 | 1013.5 |
| 20260501213058 | 83 | 307 | 6.0 | 13.0 | 0.00 | 0.00 | 0.00 | 28 | 1013.9 |
| 20260501211549 | 83 | 39 | 7.0 | 15.0 | 0.00 | 0.00 | 0.00 | 26 | 1013.9 |
| 20260501210054 | 83 | 291 | 5.0 | 16.0 | 0.00 | 0.00 | 0.00 | 23 | 1014.1 |
| 20260501204553 | 83 | 306 | 4.0 | 14.0 | 0.00 | 0.00 | 0.00 | 23 | 1014.2 |
| 20260501203058 | 82 | 297 | 4.0 | 13.0 | 0.00 | 0.00 | 0.00 | 33 | 1014.3 |
| 20260501201558 | 80 | 311 | 3.0 | 12.0 | 0.00 | 0.00 | 0.00 | 40 | 1014.4 |
| 20260501200054 | 78 | 232 | 3.0 | 10.0 | 0.00 | 0.00 | 0.00 | 43 | 1014.4 |
| 20260501194618 | 77 | 255 | 7.0 | 12.0 | 0.00 | 0.00 | 0.00 | 47 | 1014.5 |